CAPE
5 16 157 197 80 28 0 0 0 0 0 2 6 0 0 1 15 52 91 188 208 107 42 9 1 7 0 9 8 10 0 0
27 25 229 234 149 87 41 14 38 75 72 55 6 23 93 119 188 307 529 460 381 279 182 180 114 96 72 36 15 106 56 0
42 77 266 584 333 212 173 152 142 151 166 126 91 216 334 425 572 744 605 490 353 135 130 200 211 94 45 67 37 80 90 31
124 130 259 710 660 626 490 465 388 339 290 299 338 473 620 789 894 744 556 323 53 12 17 44 168 195 75 67 70 79 115 76
153 204 204 570 699 679 681 923 705 689 490 686 826 908 913 912 830 473 163 0 1 11 0 2 23 59 99 71 35 64 122 44
81 164 216 321 523 687 643 819 1080 1025 1051 1171 1111 1055 792 445 219 217 59 3 0 0 1 3 2 1 8 30 0 21 42 43
94 89 220 330 523 724 531 619 1177 781 831 833 710 708 732 330 253 131 55 6 0 0 0 0 0 4 38 41 33 0 11 47
40 92 150 417 599 744 594 679 968 986 837 816 960 785 440 224 218 241 192 157 71 18 5 0 8 5 18 50 38 50 32 30
3 54 168 311 690 916 627 715 831 773 685 552 466 589 472 353 257 290 147 65 30 26 11 9 19 25 17 19 24 86 34 49
10 40 182 434 755 1015 925 794 821 551 362 249 203 230 428 285 273 317 250 156 24 17 9 14 20 27 23 42 39 75 84 64
28 27 153 453 786 981 1044 894 713 405 153 225 51 183 482 375 341 400 295 155 103 31 23 23 31 42 42 54 82 96 100 42
25 76 118 448 789 1074 1003 841 471 185 188 57 99 464 484 558 428 533 323 247 192 135 101 54 19 36 31 42 70 96 111 125
17 39 130 191 577 1004 777 569 224 135 90 79 310 408 576 592 578 487 397 298 203 118 100 46 20 33 36 30 71 85 100 109
6 51 45 146 481 726 529 278 187 154 105 201 363 407 484 602 585 484 392 191 352 137 112 145 43 42 38 72 106 135 150 122
0 2 0 76 300 459 316 214 112 106 113 223 378 429 498 642 570 459 360 467 36 13 123 112 78 91 72 99 113 147 147 157
0 0 0 76 297 175 171 60 53 28 40 200 375 482 594 589 468 361 416 7 29 63 31 77 127 157 127 179 171 221 259 337
0 0 27 117 217 128 72 41 34 10 130 268 371 596 551 535 416 379 309 217 53 0 37 77 160 171 138 315 249 209 187 257
0 2 32 142 176 111 128 141 178 367 271 267 346 477 602 538 433 373 298 37 44 37 87 194 269 163 236 401 501 379 307 140
0 0 76 124 171 190 111 12 73 50 15 199 282 337 393 358 316 360 183 234 148 211 261 329 264 262 318 448 542 427 507 359
CIN
-119 -277 -302 -386 -441 -392 -0 -0 -0 -0 -0 -131 -325 -0 -0 -170 -248 -154 -73 -32 -33 -72 -110 -2 -0 -1 -0 -0 -0 -1 -0 -0
-161 -220 -212 -382 -420 -375 -351 -359 -338 -303 -274 -259 -208 -240 -170 -134 -71 -13 -0 -1 -11 -36 -72 -63 -82 -79 -129 -205 -234 -145 -165 -18
-165 -213 -193 -335 -391 -375 -332 -326 -305 -282 -240 -236 -227 -152 -91 -43 -8 -0 -0 -0 -4 -97 -103 -73 -65 -116 -171 -154 -224 -178 -144 -195
-174 -239 -248 -235 -349 -335 -309 -279 -256 -235 -218 -188 -151 -96 -29 -0 -0 -0 -0 -0 -152 -217 -213 -171 -79 -63 -183 -160 -154 -166 -131 -137
-181 -190 -243 -241 -250 -260 -240 -220 -222 -160 -166 -101 -50 -14 -4 -0 -0 -7 -59 -0 -7 -210 -0 -0 -156 -127 -87 -139 -178 -126 -103 -5
-137 -195 -217 -200 -209 -223 -203 -192 -156 -115 -69 -21 -6 -7 -24 -60 -60 -43 -111 -125 -0 -0 -0 -0 -0 -0 -0 -82 -0 -1 -3 -1
-125 -154 -175 -200 -214 -202 -192 -196 -98 -131 -98 -71 -65 -42 -30 -82 -62 -62 -117 -73 -0 -0 -0 -0 -0 -0 -47 -70 -2 -0 -1 -1
-52 -123 -185 -264 -251 -219 -182 -185 -115 -76 -83 -67 -41 -49 -93 -109 -70 -33 -27 -36 -73 -149 -0 -0 -1 -1 -1 -9 -0 -3 -2 -1
-56 -92 -173 -286 -305 -238 -189 -194 -133 -118 -124 -138 -154 -123 -105 -79 -65 -33 -36 -59 -75 -115 -1 -1 -1 -1 -0 -0 -0 -62 -12 -4
-94 -97 -169 -280 -334 -271 -220 -186 -153 -185 -224 -225 -239 -211 -111 -76 -47 -18 -12 -4 -86 -0 -1 -1 -1 -1 -1 -1 -1 -11 -88 -1
-130 -148 -208 -310 -353 -313 -262 -216 -230 -261 -286 -264 -277 -195 -90 -61 -32 -3 -1 -0 -14 -0 -1 -2 -0 -1 -1 -1 -1 -0 -37 -1
-168 -200 -276 -423 -385 -324 -293 -294 -290 -299 -290 -303 -253 -122 -66 -32 -15 -0 -1 -1 -0 -1 -12 -0 -4 -1 -1 -1 -0 -0 -1 -22
-218 -280 -430 -480 -450 -356 -352 -350 -349 -306 -327 -283 -184 -104 -39 -23 -4 -0 -0 -0 -1 -1 -0 -0 -1 -1 -1 -1 -0 -0 -1 -1
-215 -363 -587 -558 -477 -419 -429 -404 -374 -362 -315 -223 -155 -83 -30 -14 -3 -0 -0 -2 -0 -0 -0 -0 -1 -1 -2 -1 -0 -1 -1 -4
-0 -164 -0 -591 -520 -466 -476 -429 -363 -332 -277 -186 -117 -54 -20 -5 -0 -0 -1 -0 -10 -9 -0 -0 -0 -0 -1 -1 -1 -1 -1 -1
-0 -0 -0 -657 -542 -540 -486 -422 -350 -315 -258 -150 -75 -27 -11 -2 -0 -1 -0 -40 -10 -1 -11 -1 -1 -1 -1 -1 -1 -0 -0 -1
-0 -0 -710 -641 -543 -498 -431 -372 -306 -100 -168 -85 -30 -1 -2 -1 -1 -0 -0 -0 -5 -0 -13 -2 -0 -1 -0 -0 -0 -1 -0 -0
-0 -282 -701 -574 -494 -427 -367 -321 -260 -150 -122 -67 -16 -1 -0 -0 -0 -0 -0 -11 -4 -0 -1 -0 -0 -2 -0 -0 -0 -1 -0 -1
-0 -0 -596 -502 -416 -353 -348 -269 -226 -111 -111 -36 -7 -1 -0 -0 -0 -0 -0 -0 -0 -0 -0 -0 -1 -1 -1 -0 -1 -2 -4 -2
Wind_Speed
5 5 5 4 5 5 5 5 5 5 6 8 10 12 13 14 13 12 10 14 16 17 21 21 22 22 23 23 24 25 25 26
4 3 4 3 4 3 4 4 3 4 5 7 10 13 14 14 12 12 12 12 11 19 22 21 19 20 23 24 25 25 24 24
4 1 3 1 3 3 3 2 2 2 4 7 10 13 15 16 15 14 15 15 17 19 22 27 30 26 20 24 25 26 25 24
3 2 2 2 3 2 1 0 1 2 4 7 10 12 14 16 18 19 18 18 19 20 23 25 27 27 26 24 24 25 24 23
4 5 4 2 1 2 1 2 2 3 5 7 9 10 13 15 17 17 18 16 17 22 24 24 25 26 27 26 25 26 25 24
7 6 6 5 3 2 2 2 3 4 5 8 10 11 14 14 16 15 15 20 22 23 24 24 24 24 26 27 27 26 25 25
11 8 7 7 6 4 3 3 4 4 5 8 10 11 13 15 18 20 22 21 23 24 23 23 22 24 25 25 25 19 24 23
16 10 8 8 8 6 5 3 4 3 6 9 10 13 14 17 18 17 18 18 19 16 21 18 19 18 20 22 25 25 21 19
22 16 9 8 9 8 4 3 2 4 7 9 11 13 13 16 16 17 17 19 18 18 21 18 21 23 25 26 27 22 22 25
23 19 9 8 9 8 7 4 3 4 7 10 12 13 13 14 16 15 16 17 16 16 17 16 20 21 22 21 22 21 20 21
21 17 10 9 9 8 7 5 4 5 7 10 11 12 12 12 14 13 14 15 15 15 14 17 18 22 19 20 19 20 18 19
22 16 12 10 9 9 8 6 5 6 8 10 11 13 12 12 12 12 13 11 11 14 13 15 17 18 16 16 18 15 16 17
18 14 10 9 10 9 8 7 6 6 8 9 12 14 13 12 10 12 12 12 11 10 10 9 11 12 13 14 15 15 13 13
14 11 10 9 8 7 6 3 4 6 8 10 13 14 14 12 11 11 11 12 12 11 9 10 12 13 13 16 16 14 15 16
14 8 5 4 5 4 3 4 5 7 8 11 13 14 14 14 12 11 11 11 12 10 9 10 13 13 16 16 15 14 14 16
9 4 3 3 2 2 2 3 6 7 9 12 13 14 14 13 12 10 10 10 9 10 9 8 14 16 16 14 12 13 14 15
6 5 4 2 1 1 2 4 8 8 11 13 15 15 14 12 11 9 9 10 8 6 4 4 3 8 11 7 8 8 11 14
5 5 4 2 2 1 4 6 8 11 12 12 13 13 12 12 10 11 9 7 5 6 4 3 4 3 5 4 7 12 12 15
6 5 5 5 5 4 4 6 8 11 12 16 14 14 13 12 11 10 7 7 8 6 5 6 11 20 14 10 8 24 21 17
Wind_Direction
57 60 67 109 117 114 108 98 85 69 46 32 21 11 5 1 359 352 346 331 322 318 310 309 306 301 297 295 292 289 286 283
41 75 51 112 130 124 118 109 81 46 31 16 5 2 0 357 355 348 341 334 328 317 309 307 307 303 296 294 291 290 287 285
13 64 20 103 150 143 137 111 84 53 12 360 354 352 351 349 346 343 338 333 328 323 314 302 293 297 298 295 292 289 287 284
340 298 318 356 183 172 161 85 13 17 355 348 346 347 347 345 342 337 335 332 328 325 318 308 298 293 292 296 292 290 288 285
313 291 259 297 206 199 230 290 319 334 340 342 344 345 345 344 341 339 335 332 328 323 318 312 303 296 291 290 289 288 286 284
300 284 270 280 256 239 256 298 300 321 334 340 340 340 342 342 342 342 338 329 323 321 316 311 306 300 294 289 285 285 283 281
304 286 268 259 253 267 288 312 323 319 331 337 340 344 345 342 341 337 331 329 322 319 318 312 308 301 295 292 289 285 280 280
312 284 264 255 255 257 282 307 332 332 343 341 341 343 343 340 341 340 338 336 332 333 320 322 313 307 300 293 289 284 285 279
307 298 264 257 251 252 255 258 291 328 341 341 344 342 342 340 340 338 338 333 331 327 318 324 314 305 295 289 284 287 281 277
302 298 263 255 255 245 239 241 265 309 332 337 341 344 341 339 340 339 337 333 329 328 323 323 315 308 304 300 291 287 281 278
299 296 275 254 252 234 229 235 273 308 328 334 340 344 344 341 340 338 338 336 327 325 325 320 317 307 310 304 297 286 282 279
299 295 272 257 245 231 234 253 273 305 321 333 341 342 341 340 338 335 336 337 334 328 324 319 317 312 315 308 296 291 283 278
299 290 270 261 241 230 236 269 284 304 321 331 340 340 339 336 332 332 333 333 334 333 328 320 323 320 316 309 300 293 290 287
300 289 277 264 241 228 240 206 289 312 320 332 338 338 338 336 331 329 331 331 337 329 326 318 317 315 313 304 298 292 286 282
307 301 288 256 251 226 255 310 321 325 326 333 337 338 339 337 333 331 332 337 337 331 323 316 310 312 309 303 295 288 284 281
319 324 305 277 260 218 260 297 321 323 331 335 339 340 339 339 338 335 339 339 335 330 326 316 309 303 303 303 299 290 285 281
347 340 333 320 246 274 309 332 338 342 341 343 344 344 345 347 349 348 344 347 351 1 1 358 5 332 315 312 303 296 288 281
356 351 352 30 113 79 358 355 355 349 346 348 349 355 1 1 359 357 4 12 76 118 45 49 29 53 357 339 303 286 283 275
3 27 49 82 97 64 38 13 2 352 352 351 356 360 4 7 7 14 46 89 95 69 86 87 134 171 130 108 293 237 248 258